Home   Weather   Coburg   Past weeks

Flag for Germany Past Weather in Coburg, Bavaria, Germany — Yesterday and Last 2 Weeks

Now
21 °F

Ice fog.


Feels Like: 15 °F
Forecast: 15 / 32 °F
Wind: 5 mph from South

Location: Erfurt-Bindersleben

Current Time: Dec 4, 2016 at 7:23:01 am

Latest Report: Dec 4, 2016 at 6:50 am


Visibility: 1 mi

Pressure: 30.33 "Hg

Humidity: 100%

Dew Point: 21 °F

Location of CoburgLocation

Past Weather in Coburg — Graph

°F

Coburg Temperature Yesterday

Maximum temperature yesterday: 37 °F (at 2:20 pm)
Minimum temperature yesterday: 21 °F (at 5:20 am)
Average temperature yesterday: 27 °F

High & Low Weather Summary for the Past Weeks

 TemperatureHumidityPressure
High55 °F (Nov 20, 5:50 pm)100% (Nov 23, 12:50 am)30.54 "Hg (Nov 23, 12:50 am)
Low18 °F (Nov 29, 6:20 am)50% (Nov 20, 12:20 pm)29.53 "Hg (Nov 20, 2:50 pm)
Average37 °F86%30.09 "Hg
* Reported Nov 19 6:20 am — Dec 4 6:20 am, Coburg, Weather by CustomWeather, © 2016

Note: Actual official high and low records may vary slightly from our data, if they occured in-between our weather recording intervals... More about our weather records

Advertising

Coburg Weather History for the Previous 24 Hours

Scroll right to see more
 ConditionsComfort  
Time TempWeatherWind HumidityBarometerVisibility
6:20 am
Sun, Dec 4
21 °FLight fog.2 mph100%30.33 "HgN/A
5:50 am23 °FLight fog.5 mph86%30.33 "HgN/A
5:20 am19 °FLight fog.8 mph93%30.33 "HgN/A
4:50 am21 °FLight fog.7 mph93%30.33 "HgN/A
4:20 am21 °FClear.7 mph93%30.33 "Hg10 mi
3:50 am25 °FClear.5 mph93%30.33 "Hg10 mi
3:20 am23 °FClear.3 mph93%30.33 "Hg10 mi
2:50 am23 °FClear.7 mph93%30.33 "Hg10 mi
2:20 am23 °FClear.7 mph93%30.33 "Hg10 mi
1:50 am23 °FClear.8 mph93%30.33 "Hg10 mi
1:20 am23 °FClear.8 mph93%30.33 "Hg10 mi
12:50 am23 °FClear.8 mph86%30.33 "Hg10 mi
12:20 am25 °FClear.7 mph86%30.33 "Hg10 mi
11:50 pm
Sat, Dec 3
23 °FClear.7 mph93%30.33 "Hg10 mi
11:20 pm25 °FClear.7 mph93%30.33 "Hg10 mi
10:50 pm25 °FClear.8 mph93%30.33 "Hg10 mi
10:20 pm25 °FClear.7 mph100%30.33 "Hg10 mi
9:50 pm27 °FClear.8 mph93%30.30 "Hg10 mi
9:20 pm27 °FClear.7 mph93%30.33 "Hg10 mi
8:50 pm27 °FClear.7 mph93%30.33 "Hg10 mi
8:20 pm27 °FClear.7 mph93%30.33 "Hg10 mi
7:50 pm28 °FClear.6 mph93%30.30 "Hg10 mi
7:20 pm30 °FClear.5 mph93%30.30 "Hg10 mi
6:50 pm30 °FClear.3 mph93%30.30 "Hg10 mi
6:20 pm30 °FClear.2 mph93%30.30 "Hg10 mi
5:50 pm30 °FClear.2 mph86%30.30 "Hg10 mi
5:20 pm30 °FClear.2 mph86%30.30 "Hg10 mi
4:50 pm30 °FClear.2 mph86%30.27 "Hg10 mi
4:20 pm30 °FClear.3 mph86%30.27 "Hg10 mi
3:50 pm34 °FSunny.1 mph81%30.27 "Hg10 mi
3:20 pm34 °FSunny.1 mph81%30.27 "Hg10 mi
2:50 pm36 °FSunny.1 mph75%30.27 "Hg10 mi
2:20 pm37 °FSunny.1 mph70%30.27 "Hg10 mi
1:50 pm36 °FSunny.2 mph81%30.27 "Hg10 mi
1:20 pm36 °FSunny.1 mph75%30.27 "Hg10 mi
12:50 pm34 °FSunny.2 mph81%30.27 "Hg10 mi
12:20 pm34 °FSunny.1 mph81%30.27 "Hg10 mi
11:50 am32 °FSunny.2 mph87%30.27 "Hg10 mi
11:20 am30 °FSunny.6 mph86%30.27 "Hg10 mi
10:50 am28 °FSunny.8 mph93%30.27 "Hg10 mi
10:20 am28 °FSunny.7 mph86%30.27 "Hg10 mi
9:50 am27 °FSunny.7 mph93%30.27 "Hg10 mi
9:20 am25 °FSunny.7 mph93%30.27 "Hg10 mi
8:50 am23 °FSunny.8 mph93%30.27 "Hg10 mi
8:20 am21 °FSunny.8 mph100%30.24 "Hg10 mi
7:50 am21 °FClear.9 mph93%30.24 "Hg10 mi
7:20 am21 °FClear.8 mph100%30.24 "Hg10 mi
Weather by CustomWeather, © 2016

See weather overviewHow to use our weather pages